• In Netherlands
  • List of Countries
  • For 7 days
  • Water Temperature
  • Satellite Maps
  • Weather Map
  • Weather Widgets
  • user-avatar
    Login

    Hourly Weather Jalalabad

    Today, 25 April, Tuesday

    Time Temperature Precipitation Wind Pressure Humidity
    00:00 +22°C° 0.1 mm 1 mps 707 mmHg 52%
    01:00 +21°C° 0.1 mm 1 mps 707 mmHg 52%
    02:00 +21°C° 0.1 mm 1 mps 707 mmHg 53%
    03:00 +21°C° 0 mm 1 mps 707 mmHg 53%
    04:00 +20°C° 0 mm 1 mps 707 mmHg 54%
    05:00 +20°C° 0 mm 1 mps 706 mmHg 57%
    06:00 +22°C° 0 mm 1 mps 706 mmHg 51%
    07:00 +24°C° 0 mm 1 mps 707 mmHg 46%
    08:00 +25°C° 0 mm 1 mps 707 mmHg 41%
    09:00 +27°C° 0 mm 1 mps 707 mmHg 38%
    10:00 +28°C° 0 mm 1 mps 707 mmHg 35%
    11:00 +30°C° 0 mm 2 mps 707 mmHg 32%
    12:00 +30°C° 0.2 mm 2 mps 707 mmHg 31%
    13:00 +31°C° 0.2 mm 2 mps 706 mmHg 30%
    14:00 +31°C° 0.2 mm 2 mps 706 mmHg 29%
    15:00 +31°C° 0.3 mm 2 mps 706 mmHg 29%
    16:00 +31°C° 0.3 mm 2 mps 706 mmHg 30%
    17:00 +30°C° 0.3 mm 2 mps 706 mmHg 30%
    18:00 +29°C° 0.3 mm 2 mps 706 mmHg 35%
    19:00 +27°C° 0.3 mm 1 mps 706 mmHg 39%
    20:00 +26°C° 0.3 mm 1 mps 706 mmHg 43%
    21:00 +25°C° 0.1 mm 1 mps 707 mmHg 44%
    22:00 +25°C° 0.1 mm 1 mps 707 mmHg 45%
    23:00 +24°C° 0.1 mm 1 mps 707 mmHg 46%

    Tomorrow, 26 April, Wednesday

    Time Temperature Precipitation Wind Pressure Humidity
    00:00 +24°C° 0.1 mm 1 mps 707 mmHg 47%
    01:00 +23°C° 0.1 mm 1 mps 707 mmHg 47%
    02:00 +23°C° 0.1 mm 1 mps 706 mmHg 47%
    03:00 +22°C° 0 mm 1 mps 706 mmHg 47%
    04:00 +21°C° 0 mm 2 mps 706 mmHg 47%
    05:00 +21°C° 0 mm 2 mps 706 mmHg 47%
    06:00 +23°C° 0 mm 2 mps 707 mmHg 42%
    07:00 +25°C° 0 mm 2 mps 707 mmHg 38%
    08:00 +27°C° 0 mm 2 mps 708 mmHg 34%
    09:00 +28°C° 0 mm 2 mps 708 mmHg 30%
    10:00 +29°C° 0 mm 2 mps 708 mmHg 27%
    11:00 +30°C° 0 mm 2 mps 708 mmHg 24%
    12:00 +31°C° 0 mm 2 mps 708 mmHg 23%
    13:00 +32°C° 0 mm 2 mps 708 mmHg 22%
    14:00 +32°C° 0 mm 2 mps 707 mmHg 21%
    15:00 +32°C° 0.1 mm 2 mps 707 mmHg 21%
    16:00 +32°C° 0.1 mm 2 mps 707 mmHg 22%
    17:00 +32°C° 0.1 mm 2 mps 706 mmHg 22%
    18:00 +30°C° 0.1 mm 2 mps 707 mmHg 26%
    19:00 +28°C° 0.1 mm 1 mps 707 mmHg 30%
    20:00 +26°C° 0.1 mm 1 mps 707 mmHg 34%
    21:00 +25°C° 0 mm 1 mps 708 mmHg 34%
    22:00 +25°C° 0 mm 2 mps 708 mmHg 34%
    23:00 +25°C° 0 mm 2 mps 708 mmHg 34%

    Day after tomorrow, 27 April, Thursday

    Time Temperature Precipitation Wind Pressure Humidity
    00:00 +24°C° 0 mm 2 mps 708 mmHg 35%
    01:00 +24°C° 0 mm 3 mps 708 mmHg 36%
    02:00 +22°C° 0 mm 3 mps 708 mmHg 37%
    03:00 +22°C° 0 mm 3 mps 708 mmHg 37%
    04:00 +21°C° 0 mm 3 mps 708 mmHg 36%
    05:00 +21°C° 0 mm 3 mps 708 mmHg 36%
    06:00 +24°C° 0 mm 3 mps 708 mmHg 33%
    07:00 +25°C° 0 mm 3 mps 709 mmHg 30%
    08:00 +27°C° 0 mm 3 mps 709 mmHg 27%
    09:00 +28°C° 0 mm 2 mps 709 mmHg 25%
    10:00 +30°C° 0 mm 2 mps 709 mmHg 23%
    11:00 +31°C° 0 mm 2 mps 709 mmHg 20%
    12:00 +32°C° 0 mm 2 mps 709 mmHg 19%
    13:00 +32°C° 0 mm 2 mps 709 mmHg 19%
    14:00 +34°C° 0 mm 2 mps 708 mmHg 18%
    15:00 +34°C° 0 mm 2 mps 708 mmHg 19%
    16:00 +34°C° 0 mm 2 mps 708 mmHg 19%
    17:00 +34°C° 0 mm 2 mps 707 mmHg 20%
    18:00 +30°C° 0.1 mm 2 mps 708 mmHg 24%
    19:00 +28°C° 0.1 mm 1 mps 708 mmHg 28%
    20:00 +26°C° 0.1 mm 1 mps 708 mmHg 32%
    21:00 +26°C° 0.2 mm 1 mps 708 mmHg 33%
    22:00 +26°C° 0.2 mm 1 mps 709 mmHg 34%
    23:00 +25°C° 0.2 mm 2 mps 709 mmHg 35%

    28 April, Friday

    Time Temperature Precipitation Wind Pressure Humidity
    00:00 +25°C° 0.3 mm 2 mps 708 mmHg 36%
    01:00 +25°C° 0.3 mm 2 mps 708 mmHg 38%
    02:00 +24°C° 0.3 mm 2 mps 708 mmHg 39%
    03:00 +24°C° 0.3 mm 2 mps 708 mmHg 40%
    04:00 +23°C° 0.3 mm 2 mps 708 mmHg 41%
    05:00 +23°C° 0.3 mm 2 mps 708 mmHg 43%
    06:00 +24°C° 0.2 mm 2 mps 708 mmHg 39%
    07:00 +26°C° 0.2 mm 2 mps 708 mmHg 36%
    08:00 +28°C° 0.2 mm 2 mps 709 mmHg 32%
    09:00 +29°C° 0.1 mm 2 mps 709 mmHg 29%
    10:00 +30°C° 0.1 mm 2 mps 709 mmHg 27%
    11:00 +31°C° 0.1 mm 2 mps 709 mmHg 24%
    12:00 +32°C° 0.2 mm 2 mps 708 mmHg 23%
    13:00 +32°C° 0.2 mm 2 mps 708 mmHg 22%
    14:00 +34°C° 0.2 mm 2 mps 707 mmHg 22%
    15:00 +34°C° 0.3 mm 2 mps 707 mmHg 23%
    16:00 +34°C° 0.3 mm 2 mps 707 mmHg 24%
    17:00 +32°C° 0.3 mm 2 mps 707 mmHg 24%
    18:00 +31°C° 0.4 mm 3 mps 707 mmHg 28%
    19:00 +29°C° 0.4 mm 3 mps 707 mmHg 31%
    20:00 +28°C° 0.4 mm 4 mps 708 mmHg 35%
    21:00 +27°C° 0.5 mm 3 mps 708 mmHg 37%
    22:00 +27°C° 0.5 mm 3 mps 708 mmHg 40%
    23:00 +26°C° 0.5 mm 3 mps 708 mmHg 42%

    29 April, Saturday

    Time Temperature Precipitation Wind Pressure Humidity
    00:00 +25°C° 0.2 mm 2 mps 708 mmHg 42%
    01:00 +24°C° 0.2 mm 2 mps 708 mmHg 43%
    02:00 +24°C° 0.2 mm 2 mps 708 mmHg 44%
    03:00 +23°C° 0 mm 2 mps 707 mmHg 43%
    04:00 +23°C° 0 mm 2 mps 707 mmHg 43%
    05:00 +21°C° 0 mm 2 mps 707 mmHg 43%
    06:00 +23°C° 0 mm 2 mps 708 mmHg 39%
    07:00 +25°C° 0 mm 2 mps 708 mmHg 35%
    08:00 +26°C° 0 mm 2 mps 709 mmHg 31%
    09:00 +27°C° 0 mm 2 mps 709 mmHg 29%
    10:00 +28°C° 0 mm 3 mps 709 mmHg 26%
    11:00 +30°C° 0 mm 3 mps 709 mmHg 23%
    12:00 +30°C° 0 mm 3 mps 708 mmHg 21%
    13:00 +31°C° 0 mm 3 mps 708 mmHg 19%
    14:00 +33°C° 0 mm 3 mps 707 mmHg 17%
    15:00 +33°C° 0.1 mm 3 mps 707 mmHg 17%
    16:00 +33°C° 0.1 mm 3 mps 707 mmHg 16%
    17:00 +33°C° 0.1 mm 4 mps 707 mmHg 16%
    18:00 +30°C° 0 mm 3 mps 707 mmHg 17%
    19:00 +28°C° 0 mm 3 mps 708 mmHg 18%
    20:00 +26°C° 0 mm 3 mps 708 mmHg 19%
    21:00 +25°C° 0 mm 3 mps 708 mmHg 20%
    22:00 +23°C° 0 mm 4 mps 708 mmHg 21%
    23:00 +23°C° 0 mm 4 mps 708 mmHg 22%

    30 April, Sunday

    Time Temperature Precipitation Wind Pressure Humidity
    00:00 +22°C° 0 mm 4 mps 708 mmHg 23%
    01:00 +21°C° 0 mm 4 mps 708 mmHg 23%
    02:00 +21°C° 0 mm 3 mps 707 mmHg 24%
    03:00 +20°C° 0 mm 3 mps 707 mmHg 24%
    04:00 +19°C° 0 mm 3 mps 707 mmHg 24%
    05:00 +19°C° 0 mm 3 mps 707 mmHg 24%
    06:00 +21°C° 0 mm 3 mps 708 mmHg 21%
    07:00 +24°C° 0 mm 3 mps 708 mmHg 19%
    08:00 +26°C° 0 mm 3 mps 709 mmHg 16%
    09:00 +27°C° 0 mm 3 mps 709 mmHg 14%
    10:00 +29°C° 0 mm 3 mps 709 mmHg 12%
    11:00 +30°C° 0 mm 3 mps 709 mmHg 10%
    12:00 +31°C° 0 mm 3 mps 708 mmHg 9%
    13:00 +31°C° 0 mm 2 mps 708 mmHg 9%
    14:00 +32°C° 0 mm 2 mps 708 mmHg 9%
    15:00 +32°C° 0 mm 2 mps 707 mmHg 9%
    16:00 +32°C° 0 mm 2 mps 707 mmHg 9%
    17:00 +32°C° 0 mm 2 mps 707 mmHg 9%
    18:00 +29°C° 0 mm 1 mps 707 mmHg 12%
    19:00 +26°C° 0 mm 1 mps 707 mmHg 15%
    20:00 +22°C° 0 mm 0 mps 707 mmHg 18%
    21:00 +23°C° 0 mm 1 mps 707 mmHg 18%
    22:00 +23°C° 0 mm 1 mps 707 mmHg 18%
    23:00 +23°C° 0 mm 2 mps 707 mmHg 17%
    Show more